Regional Weather Roundup
Issued by NWS Newport/Morehead, NC

Current Version | Previous Version | Text Only | Print | Product List | Glossary On
Versions: 1 2 3 4 5 6 7 8 9 10 11 12 13 14 15 16 17 18 19 20 21 22 23 24 25 26 27 28 29 30 31 32 33 34 35 36 37 38 39 40 41 42 43 44 45 46 47 48 49 50
937
ASUS42 KMHX 252025
RWRMHX
WEATHER ROUNDUP FOR EASTERN NORTH CAROLINA
NATIONAL WEATHER SERVICE NEWPORT/MOREHEAD CITY NC
400 PM EDT MON JUL 25 2016

NOTE: "FAIR" INDICATES FEW OR NO CLOUDS BELOW 12,000 FEET
WITH NO SIGNIFICANT WEATHER AND/OR OBSTRUCTIONS TO VISIBILITY

NCZ015>017-031-032-045>047-102-103-252100-
NORTH COAST

CITY           SKY/WX    TMP DP  RH WIND       PRES   REMARKS
EDENTON        SUNNY     95  70  43 SW9       29.97F HX 102
ELIZABETH CITY SUNNY     93  73  52 S12       29.96F HX 102
KITTY HAWK     CLEAR     96  76  52 S7G16     29.96F HX 108
MANTEO           N/A     89  80  74 S17       29.98F HX 105

$$

NCZ045>047-081-094-103-104-252100-
CENTRAL COAST

CITY           SKY/WX    TMP DP  RH WIND       PRES   REMARKS
FRISCO         SUNNY     86  76  71 SW12      30.02F

$$

NCZ095-097-098-100-101-252100-
SOUTHERN COAST

CITY           SKY/WX    TMP DP  RH WIND       PRES   REMARKS
BEAUFORT       SUNNY     87  77  72 SW20      30.02F
CEDAR ISLAND   NOT AVBL
JACKSONVILLE   SUNNY     91  74  57 S15       30.00F HX 100
PINEY ISLAND   NOT AVBL
WILMINGTON     MOSUNNY   90  72  55 S14G22    30.01F


$$

NCZ011>013-027>030-043-044-078>080-089-090>093-098-252100-
COASTAL PLAIN

CITY           SKY/WX    TMP DP  RH WIND       PRES   REMARKS
AHOSKIE        SUNNY     92  76  60 S3        29.96F HX 104
CLINTON        SUNNY     93  76  58 S5        29.99F HX 106
ELIZABETHTOWN  SUNNY     94  73  50 SW9       30.00F HX 103
GOLDSBORO      SUNNY     95  73  49 SW13      29.96F HX 104
GREENVILLE     MOSUNNY   95  75  52 SW12      29.99F HX 107
HAVELOCK       MOSUNNY   90  76  63 S13       30.02F HX 101
KENANSVILLE    NOT AVBL
KINSTON        SUNNY     97  70  41 SW9       29.98F HX 103
NEW BERN       MOSUNNY   92  76  59 S13       30.00F HX 104
RICHLANDS      MOSUNNY   94  78  60 S15       30.00F HX 110
ROCKY MOUNT    MOSUNNY   94  77  57 SW9       29.97F HX 108
WASHINGTON     SUNNY     93  74  53 SW6       29.98F HX 102
WHITEVILLE     MOSUNNY   92  76  60 S10       30.01F HX 104

$$

AMZ130-135-150-152-154-156-158-170-250-252-270-ANZ085-086-088-633-658-670-252100-
MARINE OBSERVATIONS

STATION/POSITION TIME  TEMP    WIND        PRES    WAVE   SWELL
                       AIR SEA DIR/SP/G            HT/PER HT/PER
                 (UTC) (F)     (DEG/KT/KT) (MB)    (FT/S) (FT/S)
CHESAPEAKE LIGHT NOT AVBL
64 E VA BEACH    1950   83 81  210/ 14/ 17 1014.6    3/ 5   2/ 8
DUCK             2000   92 68  210/ 11/ 14 1014.0
2 E DUCK         1911      77                N/A     1/ 9
OREGON INLET     2000   85 84  190/ 18/ 21 1015.4
13E OREGON INLT  2000      83                N/A     2/ 5   2/ 9
HATTERAS CG      2000   87 83  210/  9/ 13 1016.1
DIAMOND BUOY     1950   85 86  220/ 16/ 19 1016.3    2/ 4   2/ 8
CAPE LOOKOUT     2000   87     220/ 11/ 15 1016.4
BEAUFORT LAB     2000   86 83  210/ 13/ 19 1016.0
30 SE NEW RVR IN 2008   85 85  210/ 14/ 19 1016.8
30 SE NEW RVR IN 1925      85                N/A     3/ 4
27 SE WRIGHTSVLE 2008   85 85  210/ 12/ 16 1017.2
5 SE WRIGHTSVLE  2008   85 84  210/ 14/ 17 1017.6
225 S CAPE HAT   1950   83 85  180/  8/ 10 1019.3    2/ 8   2/ 8
41 SE CHARLESTON 1950   85 87  190/  8/ 10 1017.4    2/ 8   2/ 8

$$




USA.gov is the U.S. government's official web portal to all federal, state and local government web resources and services.